| time (UTC) | temp F | wind direction | speed MPH | gust MPH | rain 1hr in | rain 24hr in | rain mn in | humidity % | barometer mb |
| 20260508053004 | 49 | 360 | 1.0 | 3.0 | 0.00 | 0.00 | 0.00 | 100 | 1016.6 |
| 20260508051503 | 49 | 360 | 1.0 | 3.0 | 0.00 | 0.00 | 0.00 | 100 | 1016.6 |
| 20260508050006 | 49 | 360 | 0.0 | 0.0 | 0.00 | 0.00 | 0.00 | 100 | 1016.4 |
| 20260508044503 | 49 | 360 | 0.0 | 2.0 | 0.00 | 0.00 | 0.00 | 100 | 1016.4 |
| 20260508043004 | 50 | 360 | 1.0 | 2.0 | 0.00 | 0.00 | 0.00 | 100 | 1016.4 |
| 20260508041505 | 50 | 360 | 1.0 | 3.0 | 0.00 | 0.00 | 0.00 | 100 | 1016.4 |
| 20260508040006 | 50 | 360 | 0.0 | 3.0 | 0.00 | 0.00 | 0.00 | 100 | 1016.3 |
| 20260508034503 | 50 | 360 | 1.0 | 3.0 | 0.00 | 0.00 | 0.00 | 100 | 1016.1 |
| 20260508033003 | 50 | 360 | 0.0 | 1.0 | 0.00 | 0.00 | 0.00 | 100 | 1016.3 |
| 20260508031503 | 50 | 360 | 1.0 | 3.0 | 0.00 | 0.00 | 0.00 | 100 | 1016.3 |
| 20260508030006 | 50 | 360 | 1.0 | 5.0 | 0.00 | 0.00 | 0.00 | 100 | 1016.3 |
| 20260508024503 | 50 | 360 | 0.0 | 0.0 | 0.00 | 0.00 | 0.00 | 100 | 1016.3 |
| 20260508023004 | 50 | 360 | 0.0 | 0.0 | 0.00 | 0.00 | 0.00 | 100 | 1016.2 |
| 20260508021503 | 50 | 360 | 0.0 | 0.0 | 0.00 | 0.00 | 0.00 | 100 | 1016.2 |
| 20260508020006 | 50 | 360 | 0.0 | 0.0 | 0.00 | 0.00 | 0.00 | 100 | 1016.2 |
| 20260508014503 | 51 | 360 | 0.0 | 0.0 | 0.00 | 0.00 | 0.00 | 100 | 1016.1 |
| 20260508013005 | 51 | 360 | 0.0 | 2.0 | 0.00 | 0.00 | 0.00 | 100 | 1016.2 |
| 20260508011503 | 51 | 360 | 0.0 | 3.0 | 0.00 | 0.00 | 0.00 | 100 | 1016.3 |
| 20260508010006 | 51 | 360 | 1.0 | 3.0 | 0.00 | 0.00 | 0.00 | 100 | 1016.3 |
| 20260508004503 | 51 | 360 | 0.0 | 3.0 | 0.00 | 0.00 | 0.00 | 100 | 1016.3 |
| 20260508003005 | 51 | 360 | 0.0 | 3.0 | 0.00 | 0.00 | 0.00 | 100 | 1016.3 |
| 20260508000008 | 52 | 360 | 0.0 | 2.0 | 0.00 | 0.00 | 0.00 | 100 | 1016.3 |
| 20260507234505 | 52 | 360 | 1.0 | 4.0 | 0.00 | 0.00 | 0.00 | 100 | 1016.2 |
| 20260507233006 | 52 | 360 | 0.0 | 0.0 | 0.00 | 0.00 | 0.00 | 100 | 1016.4 |
| 20260507231505 | 52 | 360 | 0.0 | 0.0 | 0.00 | 0.00 | 0.00 | 100 | 1016.4 |
| 20260507230009 | 52 | 360 | 0.0 | 0.0 | 0.00 | 0.00 | 0.00 | 100 | 1016.3 |
| 20260507224505 | 52 | 360 | 0.0 | 0.0 | 0.00 | 0.00 | 0.00 | 100 | 1016.4 |
| 20260507223005 | 53 | 360 | 0.0 | 0.0 | 0.00 | 0.00 | 0.00 | 100 | 1016.3 |
| 20260507220011 | 53 | 197 | 0.0 | 0.0 | 0.00 | 0.00 | 0.00 | 100 | 1016.2 |
| 20260507214504 | 53 | 200 | 0.0 | 0.0 | 0.00 | 0.00 | 0.00 | 100 | 1016.3 |
| 20260507211505 | 53 | 243 | 0.0 | 0.0 | 0.00 | 0.00 | 0.00 | 100 | 1016.0 |
| 20260507210010 | 53 | 360 | 0.0 | 1.0 | 0.00 | 0.00 | 0.00 | 100 | 1016.0 |
| 20260507204505 | 53 | 244 | 0.0 | 0.0 | 0.00 | 0.00 | 0.00 | 100 | 1015.9 |
| 20260507203005 | 53 | 360 | 0.0 | 2.0 | 0.00 | 0.00 | 0.00 | 100 | 1015.9 |
| 20260507201504 | 54 | 360 | 1.0 | 3.0 | 0.00 | 0.00 | 0.00 | 100 | 1015.8 |
| 20260507194505 | 54 | 243 | 1.0 | 4.0 | 0.00 | 0.00 | 0.00 | 100 | 1015.5 |
| 20260507193005 | 54 | 360 | 1.0 | 3.0 | 0.00 | 0.00 | 0.00 | 100 | 1015.4 |
| 20260507191504 | 54 | 360 | 2.0 | 5.0 | 0.00 | 0.00 | 0.00 | 100 | 1015.4 |
| 20260507190010 | 55 | 360 | 3.0 | 6.0 | 0.00 | 0.00 | 0.00 | 100 | 1015.4 |
| 20260507184504 | 56 | 360 | 2.0 | 8.0 | 0.00 | 0.00 | 0.00 | 100 | 1015.4 |
| 20260507183006 | 56 | 360 | 3.0 | 8.0 | 0.00 | 0.00 | 0.00 | 88 | 1015.2 |
| 20260507181504 | 57 | 360 | 3.0 | 6.0 | 0.00 | 0.00 | 0.00 | 84 | 1015.1 |
| 20260507174504 | 57 | 219 | 2.0 | 6.0 | 0.00 | 0.00 | 0.00 | 86 | 1014.9 |
| 20260507173005 | 57 | 208 | 3.0 | 6.0 | 0.00 | 0.00 | 0.00 | 64 | 1014.9 |
| 20260507171504 | 58 | 360 | 3.0 | 8.0 | 0.00 | 0.00 | 0.00 | 52 | 1014.8 |
| 20260507170007 | 58 | 173 | 3.0 | 8.0 | 0.00 | 0.00 | 0.00 | 22 | 1014.8 |
| 20260507164504 | 59 | 212 | 4.0 | 9.0 | 0.00 | 0.00 | 0.00 | 14 | 1014.8 |
| 20260507163005 | 60 | 135 | 3.0 | 9.0 | 0.00 | 0.00 | 0.00 | 14 | 1014.7 |
| 20260507161505 | 60 | 155 | 4.0 | 9.0 | 0.00 | 0.00 | 0.00 | 14 | 1014.7 |
| 20260507160007 | 59 | 150 | 3.0 | 7.0 | 0.00 | 0.00 | 0.00 | 14 | 1014.8 |
| 20260507153004 | 59 | 140 | 3.0 | 9.0 | 0.00 | 0.00 | 0.00 | 19 | 1015.0 |
| 20260507151504 | 60 | 123 | 4.0 | 7.0 | 0.00 | 0.00 | 0.00 | 45 | 1015.0 |
| 20260507150018 | 59 | 128 | 6.0 | 14.0 | 0.00 | 0.00 | 0.00 | 49 | 1015.2 |
| 20260507144504 | 61 | 176 | 4.0 | 15.0 | 0.00 | 0.00 | 0.00 | 48 | 1015.2 |
| 20260507143004 | 60 | 198 | 2.0 | 4.0 | 0.00 | 0.00 | 0.00 | 55 | 1015.5 |
| 20260507141504 | 60 | 132 | 3.0 | 11.0 | 0.00 | 0.00 | 0.00 | 43 | 1015.6 |
| 20260507140008 | 60 | 169 | 2.0 | 6.0 | 0.00 | 0.00 | 0.00 | 70 | 1015.7 |
| 20260507134504 | 60 | 146 | 4.0 | 8.0 | 0.00 | 0.00 | 0.00 | 49 | 1015.8 |
| 20260507133004 | 60 | 205 | 4.0 | 11.0 | 0.00 | 0.00 | 0.00 | 100 | 1015.7 |
| 20260507130007 | 60 | 206 | 3.0 | 8.0 | 0.00 | 0.00 | 0.00 | 100 | 1015.9 |
| 20260507124504 | 59 | 209 | 4.0 | 11.0 | 0.00 | 0.00 | 0.00 | 100 | 1016.0 |
| 20260507123005 | 58 | 150 | 3.0 | 8.0 | 0.00 | 0.00 | 0.00 | 100 | 1016.2 |
| 20260507121504 | 58 | 150 | 4.0 | 10.0 | 0.00 | 0.00 | 0.00 | 100 | 1016.2 |
| 20260507113007 | 57 | 159 | 5.0 | 12.0 | 0.00 | 0.00 | 0.00 | 100 | 1016.5 |
| 20260507111506 | 56 | 211 | 5.0 | 9.0 | 0.00 | 0.00 | 0.00 | 100 | 1016.5 |
| 20260507104504 | 55 | 360 | 3.0 | 9.0 | 0.00 | 0.00 | 0.00 | 100 | 1016.6 |
| 20260507103005 | 54 | 360 | 3.0 | 8.0 | 0.00 | 0.00 | 0.00 | 100 | 1016.7 |
| 20260507101504 | 53 | 360 | 4.0 | 10.0 | 0.00 | 0.00 | 0.00 | 100 | 1016.8 |
| 20260507100006 | 52 | 360 | 4.0 | 8.0 | 0.00 | 0.00 | 0.00 | 100 | 1016.8 |
| 20260507094503 | 51 | 360 | 3.0 | 6.0 | 0.00 | 0.00 | 0.00 | 100 | 1016.7 |
| 20260507093004 | 50 | 360 | 3.0 | 6.0 | 0.00 | 0.00 | 0.00 | 100 | 1016.8 |
| 20260507091503 | 49 | 360 | 4.0 | 6.0 | 0.00 | 0.00 | 0.00 | 100 | 1016.8 |
| 20260507090006 | 49 | 360 | 3.0 | 8.0 | 0.00 | 0.00 | 0.00 | 100 | 1016.7 |
| 20260507074503 | 47 | 360 | 3.0 | 8.0 | 0.00 | 0.00 | 0.00 | 100 | 1016.8 |
| 20260507073004 | 46 | 360 | 4.0 | 9.0 | 0.00 | 0.00 | 0.00 | 100 | 1016.7 |
| 20260507071503 | 45 | 360 | 4.0 | 8.0 | 0.00 | 0.00 | 0.00 | 100 | 1016.6 |
| 20260507070010 | 44 | 360 | 5.0 | 10.0 | 0.00 | 0.00 | 0.00 | 100 | 1016.6 |
| 20260507064503 | 44 | 360 | 4.0 | 8.0 | 0.00 | 0.00 | 0.00 | 100 | 1016.4 |
| 20260507063004 | 43 | 360 | 4.0 | 8.0 | 0.00 | 0.00 | 0.00 | 100 | 1016.5 |
| 20260507061503 | 43 | 360 | 3.0 | 6.0 | 0.00 | 0.00 | 0.00 | 100 | 1016.5 |
| 20260507060008 | 42 | 360 | 4.0 | 8.0 | 0.00 | 0.00 | 0.00 | 100 | 1016.5 |
| 20260507054504 | 42 | 360 | 4.0 | 9.0 | 0.00 | 0.00 | 0.00 | 100 | 1016.4 |